Location: Unspecified
(0.0000°N, 0.0000°E)
Time: 08:42:42
(UTC+00:00)

Transit 2A - All Passes

Search period start: 03 April 2020 00:00
Search period end: 13 April 2020 00:00
Orbit: 597 x 962 km, 66.7° (Epoch: 02 April)

Date Brightness Start Highest point End Pass type
(mag) Time Alt. Az. Time Alt. Az. Time Alt. Az.
03 Apr - 00:46:53 10° SE 00:48:47 13° ESE 00:50:40 10° E night (unlit)
03 Apr - 02:28:09 10° SW 02:31:39 24° WNW 02:35:07 10° NNW night (unlit)
03 Apr - 13:16:48 10° N 13:22:53 57° ENE 13:29:06 10° SSE daylight
03 Apr - 15:03:09 10° W 15:05:58 13° WSW 15:08:48 10° SW daylight
04 Apr - 01:53:25 10° SW 01:57:35 44° WNW 02:01:40 10° N night (unlit)
04 Apr - 12:43:10 10° N 12:48:48 36° ENE 12:54:31 10° SE daylight
04 Apr - 14:27:09 10° WNW 14:31:49 22° WSW 14:36:31 10° SSW daylight
05 Apr - 01:19:07 10° SSW 01:23:30 86° WNW 01:27:48 10° NNE night (unlit)
05 Apr - 12:09:57 10° NNE 12:14:41 23° ENE 12:19:30 10° ESE daylight
05 Apr - 13:52:06 10° NW 13:57:41 34° WSW 14:03:21 10° S daylight
06 Apr - 00:45:11 10° S 00:49:25 48° ESE 00:53:34 10° NE night (unlit)
06 Apr - 11:37:32 10° NE 11:40:35 14° ENE 11:43:39 10° E daylight
06 Apr - 13:17:29 10° NNW 13:23:35 54° WSW 13:29:45 10° S daylight
07 Apr - 00:11:40 10° SSE 00:15:19 26° ESE 00:18:54 10° NE night (unlit)
07 Apr - 01:56:46 10° W 01:58:09 11° WNW 01:59:32 10° NW night (unlit)
07 Apr - 12:43:12 10° NNW 12:49:29 84° WSW 12:55:50 10° SSE daylight
07 Apr - 23:38:51 10° SE 23:41:12 14° ESE 23:43:32 10° ENE night (unlit)
08 Apr - 01:20:46 10° WSW 01:24:03 21° WNW 01:27:19 10° NNW night (unlit)
08 Apr - 12:09:13 10° N 12:15:23 62° ENE 12:21:39 10° SSE daylight
08 Apr - 13:56:21 10° W 13:58:27 12° WSW 14:00:35 10° SW daylight
09 Apr - 00:45:55 10° SW 00:49:58 38° WNW 00:53:59 10° N night (unlit)
09 Apr - 11:35:30 10° N 11:41:17 39° ENE 11:47:08 10° SE daylight
09 Apr - 13:19:56 10° WNW 13:24:19 20° WSW 13:28:42 10° SSW daylight
10 Apr - 00:11:33 10° SSW 00:15:54 76° WNW 00:20:11 10° NNE night (unlit)
10 Apr - 11:02:11 10° NNE 11:07:11 25° ENE 11:12:14 10° ESE daylight
10 Apr - 12:44:44 10° NW 12:50:11 31° WSW 12:55:41 10° S daylight
10 Apr - 23:37:32 10° S 23:41:49 55° ESE 23:46:01 10° NNE night (unlit)
11 Apr - 10:29:31 10° NE 10:33:04 16° ENE 10:36:38 10° ESE daylight
11 Apr - 12:10:03 10° NW 12:16:05 49° WSW 12:22:09 10° S daylight
11 Apr - 23:03:55 10° S 23:07:43 29° ESE 23:11:27 10° NE night (unlit)
12 Apr - 11:35:42 10° NNW 11:41:58 77° WSW 11:48:19 10° SSE daylight
12 Apr - 22:30:54 10° SSE 22:33:36 16° ESE 22:36:17 10° ENE night (unlit)
